Location: Banios
(43.0451°N, 0.2335°E)
Time: 00:34:32
(UTC+00:00)

Envisat - Visible Passes

Search period start: 08 December 2021 00:00
Search period end: 18 December 2021 00:00
Orbit: 764 x 766 km, 98.2° (Epoch: 07 December)

Date Brightness Start Highest point End Pass type
(mag) Time Alt. Az. Time Alt. Az. Time Alt. Az.
08 Dec 3.5 04:45:44 10° NNE 04:50:46 59° E 04:55:46 10° S visible
08 Dec 4.3 06:25:51 10° NNW 06:29:19 19° WNW 06:32:46 10° WSW visible
08 Dec 6.2 17:44:00 10° WSW 17:45:43 12° W 17:47:26 10° WNW visible
09 Dec 4.9 04:09:25 10° NE 04:13:43 27° E 04:17:59 10° SSE visible
09 Dec 3.4 05:48:07 10° N 05:52:47 38° WNW 05:57:26 10° SW visible
09 Dec 5.5 17:04:15 10° SSW 17:08:27 26° W 17:12:41 10° NW visible
10 Dec 6.0 03:34:30 10° ENE 03:36:27 12° E 03:38:24 10° ESE visible
10 Dec 2.8 05:10:59 10° N 05:16:04 81° WNW 05:21:09 10° SSW visible
11 Dec 4.0 04:34:17 10° NNE 04:39:10 46° E 04:44:01 10° S visible
11 Dec 4.0 06:13:56 10° NNW 06:17:53 23° WNW 06:21:49 10° WSW visible
11 Dec 6.0 17:31:08 10° SW 17:34:00 15° W 17:36:54 10° NW visible
12 Dec 5.3 03:58:12 10° NE 04:02:03 21° E 04:05:53 10° SE visible
12 Dec 3.2 05:36:26 10° N 05:41:18 47° WNW 05:46:09 10° SW visible
12 Dec 5.0 16:52:16 10° SSW 16:56:48 33° W 17:01:23 10° NNW visible
13 Dec 3.0 04:59:24 10° NNE 05:04:31 80° ESE 05:09:36 10° S visible
13 Dec 4.5 06:40:15 10° NNW 06:42:52 14° WNW 06:45:28 10° W visible
14 Dec 4.4 04:22:51 10° NNE 04:27:33 36° E 04:32:12 10° SSE visible
14 Dec 3.8 06:02:07 10° N 06:06:25 28° WNW 06:10:43 10° SW visible
14 Dec 5.8 17:18:45 10° SW 17:22:20 19° W 17:25:56 10° NW visible
15 Dec 5.6 03:47:08 10° NE 03:50:23 17° E 03:53:36 10° SE visible
15 Dec 2.9 05:24:47 10° N 05:29:47 60° WNW 05:34:46 10° SSW visible
16 Dec 3.4 04:47:53 10° NNE 04:52:57 63° E 04:57:58 10° S visible
16 Dec 4.3 06:28:09 10° NNW 06:31:27 18° WNW 06:34:45 10° WSW visible
16 Dec 6.4 17:46:51 10° W 17:47:57 11° W 17:49:02 10° WNW visible
17 Dec 4.8 04:11:31 10° NE 04:15:55 29° E 04:20:17 10° SSE visible
17 Dec 3.5 05:50:21 10° N 05:54:57 35° WNW 05:59:32 10° SW visible
17 Dec 5.6 17:06:35 10° SSW 17:10:40 24° W 17:14:46 10° NW visible
